Starlink 33740

operational
NORAD ID: 63451 Int'l Des: 2025-069 Owner: SPXS Country: US Constellation: starlink
LEOCIRCULAR

Starlink 33740について

説明を読み込み中...

リアルタイム位置

3D地球を読み込み中...

次回通過

高度履歴

Altitude vs Time

uPlot chart will show altitude changes over time

軌道要素

1 63451U 25069U 25351.77570660 .00020936 00000-0 71687-3 0 9997
2 63451 53.1569 162.9315 0001290 70.1255 289.9885 15.30206267 40756
Epoch: Dec 17, 2025 • Age: 12 hours

現在のステータス

高度 491.6 km
速度 7.62 km/s
衛星直下点 -45.85°S, 156.14°W
打ち上げ日 Apr 4, 2025
運用期間 0.7 years
タイプ internet

技術仕様

分類 Payload
質量 575.00 kg
乾燥質量 530.00 kg
総質量 575.00 kg
長さ 0.30 m
直径 4.10 m
スパン 29.00 m
形状 Box + pan
製造者 SPXS
バスタイプ Starlink V2MO
フェーズステータス In Orbit
所有者/国 SPXS/US

大規模コンステレーション

Loading constellations...